Weather History for Harlingen, TX

Change the Weather History Date:

Sunday, February 3, 2013

  Actual Average Record
Temperature  
Mean Temperature 68 °F 62 °F  
Max Temperature 79 °F 72 °F 98 °F (1963)
Min Temperature 56 °F 51 °F 23 °F (1917)
Degree Days  
Heating Degree Days 0 5  
Month to date heating degree days 3 15  
Since 1 July heating degree days 302 463  
Cooling Degree Days 3 2  
Month to date cooling degree days 8 6  
Year to date cooling degree days 78 55  
Growing Degree Days 16 (Base 50)    
Moisture  
Dew Point 55 °F    
Average Humidity 66    
Maximum Humidity 100    
Minimum Humidity 31    
Precipitation  
Precipitation 0.00 in 0.06 in 1.14 in (2010)
Month to date precipitation 0.00 0.17  
Year to date precipitation 2.54 1.23  
Sea Level Pressure  
Sea Level Pressure 30.19 in    
Wind  
Wind Speed 8 mph (East)    
Max Wind Speed 20 mph    
Max Gust Speed 24 mph    
Visibility 8 miles    
Events Fog    
T = Trace of Precipitation, MM = Missing Value Source: NWS Daily Summary

Daily Weather History Graph

Daily Weather History Graph

Search for Another Location

Airport:

Trip Planner

Search our weather history database for the weather conditions in past years. The results will help you decide how hot, cold, wet, or windy it might be!

Date:

Astronomy

Feb. 03, 2013 Rise Set
Actual Time 7:13 AM CST 6:15 PM CST
Civil Twilight 6:49 AM CST 6:39 PM CST
Nautical Twilight 6:22 AM CST 7:07 PM CST
Astronomical Twilight 5:55 AM CST 7:34 PM CST
Moon 12:41 AM CST (2/3) 11:57 AM CST (2/3)
Length of Visible Light 11h 49m
Length of Day
11h 01m
Waning Gibbous, 48% of the Moon is Illuminated
Feb 3
Waning Gibbous
Feb 10
New
Feb 17
First Quarter
Feb 25
Full
Mar 4
Last Quarter

Hourly Weather History & Observations

Time (CST) Temp. Dew Point Humidity Pressure Visibility Wind Dir Wind Speed Gust Speed Precip Events Conditions
12:52 AM 57.9 °F 55.0 °F 90% 30.22 in 10.0 mi Calm Calm - N/A   Clear
1:52 AM 57.0 °F 55.9 °F 96% 30.22 in 9.0 mi Calm Calm - N/A   Clear
2:08 AM 57.2 °F 55.4 °F 94% 30.22 in 2.5 mi East 3.5 mph - N/A   Clear
2:16 AM 57.2 °F 57.2 °F 100% 30.21 in 6.0 mi East 4.6 mph - N/A   Clear
2:52 AM 57.0 °F 55.9 °F 96% 30.22 in 10.0 mi NE 4.6 mph - N/A   Partly Cloudy
3:52 AM 57.0 °F 55.9 °F 96% 30.22 in 10.0 mi Calm Calm - N/A   Scattered Clouds
4:28 AM 57.2 °F 55.4 °F 94% 30.23 in 2.5 mi Calm Calm - N/A   Mostly Cloudy
4:36 AM 57.2 °F 55.4 °F 94% 30.23 in 7.0 mi ENE 3.5 mph - N/A   Mostly Cloudy
4:52 AM 57.9 °F 55.9 °F 93% 30.23 in 10.0 mi NNE 3.5 mph - N/A   Overcast
5:52 AM 57.9 °F 57.0 °F 97% 30.23 in 10.0 mi ENE 3.5 mph - N/A   Scattered Clouds
6:52 AM 59.0 °F 57.9 °F 96% 30.25 in 9.0 mi Calm Calm - N/A   Overcast
7:25 AM 57.2 °F 57.2 °F 100% 30.25 in 1.2 mi Calm Calm - N/A   Scattered Clouds
7:28 AM 57.2 °F 55.4 °F 94% 30.25 in 0.2 mi Calm Calm - N/A Fog Fog
7:38 AM 55.4 °F 55.4 °F 100% 30.25 in 0.2 mi Calm Calm - N/A Fog Fog
7:52 AM 57.9 °F 57.9 °F 100% 30.25 in 0.2 mi Calm Calm - N/A Fog Fog
8:05 AM 59.0 °F 59.0 °F 100% 30.26 in 1.0 mi ESE 3.5 mph - N/A   Clear
8:12 AM 60.8 °F 60.8 °F 100% 30.26 in 3.0 mi ESE 3.5 mph - N/A   Clear
8:52 AM 64.0 °F 60.1 °F 87% 30.26 in 10.0 mi ESE 5.8 mph - N/A   Clear
9:52 AM 71.1 °F 57.9 °F 63% 30.27 in 10.0 mi SE 9.2 mph - N/A   Clear
10:52 AM 75.0 °F 51.1 °F 43% 30.27 in 10.0 mi East 5.8 mph - N/A   Clear
11:52 AM 78.1 °F 48.9 °F 36% 30.24 in 10.0 mi East 12.7 mph - N/A   Partly Cloudy
12:52 PM 78.1 °F 46.0 °F 32% 30.20 in 10.0 mi East 13.8 mph 19.6 mph N/A   Clear
1:52 PM 77.0 °F 45.0 °F 32% 30.17 in 10.0 mi East 13.8 mph - N/A   Clear
2:52 PM 75.0 °F 48.0 °F 38% 30.14 in 10.0 mi East 15.0 mph 21.9 mph N/A   Clear
3:52 PM 73.0 °F 48.0 °F 41% 30.13 in 10.0 mi East 16.1 mph - N/A   Clear
4:52 PM 71.1 °F 51.1 °F 49% 30.12 in 10.0 mi East 17.3 mph 23.0 mph N/A   Clear
5:52 PM 69.1 °F 55.0 °F 61% 30.11 in 10.0 mi East 18.4 mph - N/A   Clear
6:52 PM 66.0 °F 57.0 °F 73% 30.09 in 10.0 mi East 12.7 mph - N/A   Clear
7:52 PM 64.0 °F 57.0 °F 78% 30.10 in 10.0 mi ESE 8.1 mph - N/A   Clear
8:52 PM 62.1 °F 57.0 °F 84% 30.09 in 10.0 mi ESE 6.9 mph - N/A   Clear
9:52 PM 63.0 °F 57.0 °F 81% 30.07 in 10.0 mi ESE 9.2 mph - N/A   Clear
10:52 PM 63.0 °F 57.0 °F 81% 30.06 in 10.0 mi SE 8.1 mph - N/A   Clear
11:52 PM 62.1 °F 55.9 °F 80% 30.02 in 10.0 mi SE 8.1 mph - N/A   Clear